Погода в Сливене

Болгария     42°39′50″N   26°20′21″E
темп.,
°C
ветер,
м/с
пор.,
м/с
влажн.,
%
обл.,
%
осадки,
мм/ч
давл.,
гПа
погр.,
м
18 мая, ср
ср1800:00+15зюз117591 0.0 101315
03:00+15сз347464 0.0 101384
06:00+13ссз4695100 0.3 1012167
09:00+16сз41176100 0.4 10131079
12:00+10ссв3790100 1.0 1017546
15:00+7ссв3693100 3.4 1020476
18:00+6с91486100 0.1 1023944
21:00+6с412694 0.2 1025490
19 мая, чт
чт1900:00+5с412743 0.0 1028566
03:00+4с39816 0.0 1029357
06:00+3ссз348747 0.0 103063
09:00+9ссз510625 0.0 10291133
12:00+13с68504 0.0 10291441
15:00+16с564515 0.0 10271892
18:00+15с56505 0.0 10271675
21:00+9ссз33752 0.0 102944
20 мая, пт
пт2000:00+8ссз32725 0.0 102924
03:00+8ссз22710 0.0 102815
06:00+8ссз22680 0.0 102814
09:00+15с13505 0.0 1028651
12:00+19ююв13435 0.0 10271391
15:00+21ююз13435 0.0 10251512
18:00+19ююз124894 0.0 1024981
21:00+12ссз11780 0.0 102411
21 мая, сб
сб2100:00+11зюз118390 0.0 102311
03:00+10з118631 0.0 102111
06:00+10зюз11800 0.0 102010
09:00+17юз22573 0.0 1019264
12:00+22ююз22435 0.0 1017901
15:00+24юз23405 0.0 10151337
18:00+22зюз13455 0.0 1014745
21:00+15зсз117094 0.0 101411
22 мая, вс
вс2200:00+15сз12576 0.0 101411
03:00+15сз2251100 0.0 101219
06:00+14ссз3369100 0.0 101134
09:00+19сз4114916 0.0 1011678
12:00+19сз61347100 0.0 1010842
15:00+22сз71236100 0.0 10091529
18:00+19сз91644100 0.0 10081419
21:00+17сз7144599 0.0 10101397